This is the latest recevied weather packets stored in our database for station/object KD6VEX-1. If no packets are shown the sender has not sent any weather packets the latest 10 day(s).
| Time | Temp. | Humidity | Pressure | Rain* | Wind** | Luminosity | Snow |
|---|---|---|---|---|---|---|---|
| 1777935052 | 18.33° C | 57% | 1014.2 hPa | 0 mm | - | - | - |
| 1777934752 | 18.33° C | 59% | 1014.3 hPa | 0 mm | - | - | - |
| 1777934452 | 17.78° C | 65% | 1014.3 hPa | 0 mm | - | - | - |
| 1777934152 | 17.78° C | 62% | 1014.4 hPa | 0 mm | - | - | - |
| 1777933854 | 17.78° C | 63% | 1014.5 hPa | 0 mm | - | - | - |
| 1777933552 | 17.78° C | 64% | 1014.6 hPa | 0 mm | - | - | - |
| 1777933252 | 18.33° C | 66% | 1014.6 hPa | 0 mm | - | - | - |
| 1777932796 | 18.89° C | 63% | 1014.8 hPa | 0 mm | - | - | - |
| 1777932492 | 18.89° C | 53% | 1014.7 hPa | 0 mm | - | - | - |
| 1777932192 | 18.89° C | 55% | 1014.7 hPa | 0 mm | - | - | - |
| 1777931892 | 18.89° C | 56% | 1014.8 hPa | 0 mm | - | - | - |
| 1777931592 | 19.44° C | 54% | 1014.8 hPa | 0 mm | - | - | - |
| 1777931292 | 18.89° C | 54% | 1014.7 hPa | 0 mm | - | - | - |
| 1777930992 | 18.89° C | 54% | 1014.8 hPa | 0 mm | - | - | - |
| 1777930692 | 18.89° C | 55% | 1014.8 hPa | 0 mm | - | - | - |
| 1777930392 | 18.89° C | 58% | 1014.9 hPa | 0 mm | - | - | - |
| 1777930092 | 18.89° C | 57% | 1014.9 hPa | 0 mm | - | - | - |
| 1777929792 | 18.89° C | 54% | 1015 hPa | 0 mm | - | - | - |
| 1777929492 | 19.44° C | 54% | 1015 hPa | 0 mm | - | - | - |
| 1777929192 | 19.44° C | 54% | 1014.9 hPa | 0 mm | - | - | - |
| 1777928892 | 19.44° C | 55% | 1015 hPa | 0 mm | - | - | - |
| 1777928593 | 19.44° C | 51% | 1015 hPa | 0 mm | - | - | - |
| 1777928292 | 20° C | 49% | 1015 hPa | 0 mm | - | - | - |
| 1777927992 | 20° C | 48% | 1015 hPa | 0 mm | - | - | - |
| 1777927692 | 20° C | 49% | 1014.9 hPa | 0 mm | - | - | - |
* Rain latest hour (hover to see other rain measurements)
** Current wind speed in m/s (hover to see current wind gust speed)